Weather History for Buffalo, WY

Change the Weather History Date:

Thursday, May 16, 2013

  Actual Average Record
Temperature  
Mean Temperature 60 °F 52 °F  
Max Temperature 70 °F 63 °F 83 °F (2012)
Min Temperature 49 °F 41 °F 30 °F (2009)
Degree Days  
Heating Degree Days 5 13  
Month to date heating degree days 173 240  
Since 1 July heating degree days 6878 7084  
Cooling Degree Days 0 0  
Month to date cooling degree days 10 0  
Year to date cooling degree days 10 0  
Growing Degree Days 8 (Base 50)    
Moisture  
Dew Point 44 °F    
Average Humidity 63    
Maximum Humidity 83    
Minimum Humidity 42    
Precipitation  
Precipitation 0.04 in 0.09 in 0.56 in (2000)
Month to date precipitation 0.36 1.24  
Year to date precipitation 1.88 4.23  
Sea Level Pressure  
Sea Level Pressure 29.76 in    
Wind  
Wind Speed 5 mph (NW)    
Max Wind Speed 25 mph    
Max Gust Speed 37 mph    
Visibility 10 miles    
Events Rain    
T = Trace of Precipitation, MM = Missing Value Source: NWS Daily Summary

Daily Weather History Graph

Daily Weather History Graph

Search for Another Location

Airport:

Trip Planner

Search our weather history database for the weather conditions in past years. The results will help you decide how hot, cold, wet, or windy it might be!

Date:

Astronomy

May. 16, 2013 Rise Set
Actual Time 5:38 AM MDT 8:28 PM MDT
Civil Twilight 5:04 AM MDT 9:02 PM MDT
Nautical Twilight 4:21 AM MDT 9:46 PM MDT
Astronomical Twilight 3:31 AM MDT 10:36 PM MDT
Moon 11:18 AM MDT (5/16) 12:47 AM MDT (5/16)
Length of Visible Light 15h 58m
Length of Day
14h 50m
Waxing Crescent, 36% of the Moon is Illuminated
May 16
Waxing Crescent
May 17
First Quarter
May 24
Full
May 31
Last Quarter
Jun 8
New

Hourly Weather History & Observations

Time (MDT) Temp. Dew Point Humidity Pressure Visibility Wind Dir Wind Speed Gust Speed Precip Events Conditions
12:53 AM 59.0 °F 39.0 °F 48% 29.73 in 10.0 mi NNW 8.1 mph - N/A   Clear
1:53 AM 55.9 °F 39.9 °F 55% 29.74 in 10.0 mi NNW 16.1 mph 24.2 mph N/A   Clear
2:53 AM 53.1 °F 43.0 °F 69% 29.74 in 10.0 mi NNW 20.7 mph 27.6 mph N/A   Partly Cloudy
3:53 AM 50.0 °F 41.0 °F 71% 29.77 in 10.0 mi North 11.5 mph 23.0 mph N/A   Clear
4:53 AM 48.9 °F 39.9 °F 71% 29.76 in 10.0 mi West 3.5 mph - N/A   Clear
5:53 AM 50.0 °F 39.9 °F 68% 29.75 in 10.0 mi WNW 6.9 mph - N/A   Scattered Clouds
6:53 AM 51.1 °F 41.0 °F 68% 29.77 in 10.0 mi WNW 4.6 mph - N/A   Mostly Cloudy
7:53 AM 55.0 °F 41.0 °F 59% 29.76 in 10.0 mi NW 5.8 mph - N/A   Clear
8:53 AM 55.0 °F 43.0 °F 64% 29.78 in 10.0 mi NNW 3.5 mph - N/A   Mostly Cloudy
9:53 AM 57.9 °F 43.0 °F 58% 29.77 in 10.0 mi North 4.6 mph - N/A   Clear
10:53 AM 61.0 °F 43.0 °F 52% 29.77 in 10.0 mi Calm Calm - N/A   Clear
11:53 AM 62.1 °F 44.1 °F 52% 29.77 in 10.0 mi North 4.6 mph - N/A   Clear
12:53 PM 64.9 °F 44.1 °F 47% 29.75 in 10.0 mi Variable 4.6 mph - N/A   Clear
1:53 PM 66.9 °F 45.0 °F 45% 29.73 in 10.0 mi SE 5.8 mph - N/A   Partly Cloudy
2:53 PM 68.0 °F 44.1 °F 42% 29.72 in 10.0 mi Variable 6.9 mph - N/A   Mostly Cloudy
3:53 PM 66.9 °F 44.1 °F 44% 29.71 in 10.0 mi Calm Calm - 0.00 in   Mostly Cloudy
4:53 PM 62.1 °F 48.9 °F 62% 29.74 in 3.0 mi WSW 3.5 mph - 0.03 in Rain Light Rain
5:53 PM 64.9 °F 48.9 °F 56% 29.71 in 10.0 mi Variable 3.5 mph - 0.01 in   Clear
6:53 PM 64.0 °F 48.0 °F 56% 29.73 in 10.0 mi Calm Calm - N/A   Mostly Cloudy
8:53 PM 55.9 °F 46.9 °F 72% 29.79 in 10.0 mi North 3.5 mph - N/A   Clear
9:53 PM 53.1 °F 46.9 °F 80% 29.81 in 10.0 mi WNW 5.8 mph - N/A   Partly Cloudy
10:53 PM 55.0 °F 48.0 °F 77% 29.80 in 10.0 mi NNW 4.6 mph - N/A   Mostly Cloudy
11:53 PM 53.1 °F 48.0 °F 83% 29.80 in 10.0 mi NNW 5.8 mph - N/A   Scattered Clouds